RH
57 59 61 64 65 64 65 68 71 72 69 70 71 71 73 72 72 74 77 79 80 78 73 76 77 81 83
63 70 71 70 67 67 70 68 67 68 72 76 76 73 75 71 70 73 74 74 76 72 73 73 71 71 71
74 72 71 67 71 79 80 79 74 74 71 73 79 71 69 67 64 64 63 64 67 63 64 63 60 62 60
86 81 79 76 81 78 76 74 69 63 60 59 57 54 54 50 47 46 46 48 50 52 52 54 55 55 59
88 87 83 83 80 78 72 65 57 51 48 47 42 40 40 40 41 42 43 44 46 48 51 55 57 59 61
87 87 84 82 78 68 56 48 43 45 40 41 43 43 43 45 46 47 48 50 53 59 59 57 57 56 57
86 82 71 67 61 54 49 43 42 42 39 36 39 39 41 42 42 42 42 41 40 38 39 35 34 33 29
72 68 65 55 50 47 46 45 44 43 41 38 39 38 37 38 39 39 35 31 27 24 20 17 16 19 22
65 59 54 51 50 50 50 48 45 45 47 47 43 38 36 36 35 29 22 18 16 15 18 22 25 27 28
57 54 52 52 52 49 48 48 48 48 51 44 41 40 37 31 24 20 18 19 21 24 27 29 30 31 31
55 54 52 51 51 51 51 50 48 47 45 40 36 34 33 30 27 24 26 28 27 27 28 29 29 31 32
54 55 55 55 55 54 52 49 44 41 39 33 30 32 30 31 35 34 34 28 27 27 27 26 27 28 31
58 62 61 61 57 52 48 45 43 37 30 26 25 27 33 39 37 33 29 28 28 28 28 27 27 28 27
65 60 59 53 49 47 46 39 33 26 26 29 33 36 35 33 31 29 31 34 33 30 30 29 30 33 35
59 56 54 50 46 42 36 33 32 32 37 38 37 35 33 31 30 29 33 32 33 33 34 34 32 36 39
55 51 47 41 38 39 39 40 41 42 40 38 37 33 31 30 31 33 31 32 31 35 36 36 35 36 40
46 43 43 45 46 47 48 47 45 43 42 40 38 36 35 33 29 31 30 29 33 36 37 38 38 39 41